ONEWEB-0697, 61603

Orbit data source: Space-Track

ONEWEB-0697, 61603 is a payload satellite owned by Eut. One Web (UK) in LEO that was launched on Sun, 20 Oct 2024 UTC via an FALCON 9 launch vehicle from the Air Force Western Test Range (AFWTR). Payload-class satellites include a variety of spacecraft equipped with specific instruments for various scientific and technological missions. These include communications satellites like Starlink; space stations such as the ISS; scientific satellites like the Hubble; Earth observation satellites from companies like Planet Labs, Umbra, and HawkEye 360; GPS; miniature CubeSats for education and research; and military/defense satellites.

Loading next visibility...
Identifier
61603, 2024-188K
Orbit
LEO
Country
Flag of UKUK
Related business
Manufacturer
One Web
Mission
Operational Commercial Communications
Bus & Motor
ARROW, Unknown motor
Mass
148 kg wet, ~140 kg dry
Launch date (UTC)
2024-10-20 (1 year ago)
Launch vehicle
FALCON 9
Launch site
Air Force Western Test Range (AFWTR)
Object type
Payload
Rocket body
Debris
Shape & HBR
Trap Box + 2 Pan, 6.7 m
Radar Cross Section
3.464 m², Large (>1 m²)

Expand to show TLE details & history
Last TLE update: 14 hours ago

TLE from 14 hours ago
0 ONEWEB-0697
1 61603U 24188K   26072.31965208 -.00000484  00000-0 -14025-2 0  9992
2 61603  87.8864  40.1277 0002625  84.7238 275.4189 13.11417001 71886
Epoch: 2026-03-13T07:40Z
TLE epoch observation values (Epoch: 2026-03-13T07:40:17.939Z)
Latitude
-0.00008°
Longitude
114.09607°
Altitude
1,220.384 km
Speed
7.244 km/s
True Right ascension
02h 40m 30s
True Declination
0° 00' 00"
Sunlit
Object was in daylight at epoch
Visualization orbit readout
Latitude
Unknown
Longitude
Unknown
Altitude
Unknown
Speed
Unknown
Apparent Right ascension
Unknown
Apparent Declination
Unknown
Sunlit
N/A
Visualization observer readout
Local Sidereal Time
02:12:34
Azimuth
Unknown
Elevation
Unknown
Doppler factor
Unknown
Orbital elements
Apogee altitude
1,216.794 km
Perigee altitude
1,212.808 km
Semi-major axis
7,592.938 km
Eccentricity
0.00026
Inclination
87.8864°
RAAN
40.1277°
Arg. of periapsis
84.7238°
True anomaly
275.38895°
Mean anomaly
275.4189°
Eccentric anomaly
275.40393°
Mean motion
3.28041 °/min
Orbital period
109.74 mins
BSTAR
-0.0014025
Loading maneuver chart data...
Computing Atmospheric mass density...
Loading historical data...
Loading historical data...
Loading historical data...
Loading historical data...
Loading historical data...
Loading historical data...
Loading historical data...

Documentation

Showing up to 5 results
|